"Pseudo-MPEC" for P21JwCe

Created 2023 Oct 2 14:22:11 UT using Find_Orb

Click here for an explanation of pseudo-MPECs

 
 Astrometry: 
     P21JwCe* C2023 09 14^Z-sAstrometry(X-;c$.'uk_redacted;$`%clickv.S2vQD4j=F52
     P21JwCe  C2023 09 14/J\m*hereDA3N(?,jF'5`_v?\^rn5$l#H/3rFZ#j!jFOrf[=f=RLF52
     P21JwCe  C2023 09 14(l^ARVByYE.l=.'@R(dyX]?mT+0for,235Xq0vexplanation$fsF52

Station data:
(F52) Pan-STARRS 2, Haleakala  (N20.707382 W156.255910)  US/Hawaii.
   Observers J. Bulger, T. Dukes, T. Lowe, A. Schultz, M. Willman. Measurers
   K. Chambers, S. Chastel, T. de Boer, L. Denneau, J. Fairlamb, H.
   Flewelling, M. Huber, C.-C. Lin, E. Magnier, Y. Ramanjooloo, R. Wainscoat,
   R. Weryk. 1.8-m Ritchey-Chrétien + CCD.

Orbital elements:  P21JwCe
   Perihelion 2023 Nov 20.23150 +/- 53.9 TT =  5:33:21 (JD 2460268.73150)
Epoch 2023 Sep 14.0 TT = JDT 2460201.5   Earth MOID: 0.4205   Ju: 0.9922
M 347.33772029 +/- 16               Ma: 0.0648                   AutoNEOCP
n   0.18833849 +/- 0.212            Peri.   94.65648 +/- 90
a   3.01423185 +/- 2.26             Node   303.93112 +/- 49
e   0.5365302 +/- 0.243             Incl.    5.65237 +/- 4.4
P   5.23                   H 22.03  G  0.15   U 11.7  SR
q 1.39700519 +/- 0.523    Q 4.63145851 +/- 113            (J2000 ecliptic)
From 3 observations 2023 Sept. 14 (33.2 min); mean residual 0".05
Residuals in arcseconds: 
230914 F52  .04-  .03-    230914 F52  .09+  .06+    230914 F52  .04-  .03-    

Ephemerides (geocentric):
Date (UTC) HH   RA             Dec           delta  r     elong  mag " sig PA
---- --------  ------------   ------------  ------ ------ -----  --- --------
2023 10 02 14  23 15 26.179   +10 57 50.75  .50883 1.4883 159.5 22.2  47d  96
2023 10 02 15  23 15 25.205   +10 58 02.33  .50876 1.4882 159.5 22.2  47d  96
2023 10 02 16  23 15 24.235   +10 58 13.90  .50869 1.4880 159.5 22.2  47d  96
2023 10 02 17  23 15 23.267   +10 58 25.45  .50863 1.4879 159.4 22.2  47d  96
2023 10 02 18  23 15 22.302   +10 58 36.98  .50856 1.4877 159.4 22.2  47d  96
2023 10 02 19  23 15 21.340   +10 58 48.50  .50849 1.4876 159.4 22.2  47d  96
2023 10 02 20  23 15 20.381   +10 59 00.01  .50842 1.4874 159.3 22.2  47d  96
2023 10 02 21  23 15 19.425   +10 59 11.50  .50836 1.4873 159.3 22.2  47d  96
2023 10 02 22  23 15 18.472   +10 59 22.98  .50829 1.4871 159.3 22.2  47d  96
2023 10 02 23  23 15 17.522   +10 59 34.44  .50822 1.4870 159.2 22.2  47d  96
2023 10 03 00  23 15 16.574   +10 59 45.89  .50816 1.4868 159.2 22.2  47d  96
2023 10 03 01  23 15 15.630   +10 59 57.32  .50809 1.4867 159.2 22.2  47d  96
2023 10 03 02  23 15 14.689   +11 00 08.74  .50802 1.4866 159.1 22.2  47d  96
2023 10 03 03  23 15 13.750   +11 00 20.15  .50796 1.4864 159.1 22.2  47d  96
2023 10 03 04  23 15 12.815   +11 00 31.54  .50789 1.4863 159.1 22.2  47d  96
2023 10 03 05  23 15 11.883   +11 00 42.91  .50783 1.4861 159.0 22.2  47d  96
2023 10 03 06  23 15 10.953   +11 00 54.28  .50776 1.4860 159.0 22.2  47d  96
2023 10 03 07  23 15 10.027   +11 01 05.62  .50770 1.4858 159.0 22.2  47d  96
2023 10 03 08  23 15 09.103   +11 01 16.96  .50763 1.4857 158.9 22.2  47d  96
2023 10 03 09  23 15 08.183   +11 01 28.28  .50757 1.4855 158.9 22.2  47d  96
2023 10 03 10  23 15 07.266   +11 01 39.58  .50751 1.4854 158.9 22.2  47d  96
2023 10 03 11  23 15 06.352   +11 01 50.87  .50744 1.4852 158.8 22.2  47d  96
2023 10 03 12  23 15 05.440   +11 02 02.15  .50738 1.4851 158.8 22.2  47d  96
2023 10 03 13  23 15 04.532   +11 02 13.41  .50732 1.4849 158.8 22.2  47d  96
2023 10 03 14  23 15 03.627   +11 02 24.66  .50725 1.4848 158.7 22.2  47d  96
2023 10 03 15  23 15 02.725   +11 02 35.89  .50719 1.4846 158.7 22.2  47d  96
2023 10 03 16  23 15 01.826   +11 02 47.11  .50713 1.4845 158.7 22.2  47d  96
2023 10 03 17  23 15 00.930   +11 02 58.31  .50707 1.4844 158.6 22.2  47d  96
2023 10 03 18  23 15 00.038   +11 03 09.51  .50700 1.4842 158.6 22.2  47d  96
2023 10 03 19  23 14 59.148   +11 03 20.68  .50694 1.4841 158.6 22.2  47d  96
2023 10 03 20  23 14 58.262   +11 03 31.85  .50688 1.4839 158.5 22.2  47d  96
2023 10 03 21  23 14 57.378   +11 03 42.99  .50682 1.4838 158.5 22.2  47d  96
2023 10 03 22  23 14 56.498   +11 03 54.13  .50676 1.4836 158.4 22.2  47d  96
2023 10 03 23  23 14 55.621   +11 04 05.25  .50670 1.4835 158.4 22.2  47d  96
2023 10 04 00  23 14 54.747   +11 04 16.36  .50664 1.4833 158.4 22.2  47d  96
2023 10 04 01  23 14 53.876   +11 04 27.45  .50658 1.4832 158.3 22.2  47d  96
2023 10 04 02  23 14 53.009   +11 04 38.53  .50652 1.4830 158.3 22.2  47d  96
2023 10 04 03  23 14 52.144   +11 04 49.60  .50646 1.4829 158.3 22.2  47d  96
2023 10 04 04  23 14 51.283   +11 05 00.65  .50640 1.4828 158.2 22.2  47d  96
2023 10 04 05  23 14 50.425   +11 05 11.68  .50634 1.4826 158.2 22.2  47d  96
2023 10 04 06  23 14 49.570   +11 05 22.71  .50628 1.4825 158.2 22.2  47d  96
2023 10 04 07  23 14 48.719   +11 05 33.72  .50622 1.4823 158.1 22.2  47d  96
2023 10 04 08  23 14 47.870   +11 05 44.71  .50616 1.4822 158.1 22.2  47d  96
2023 10 04 09  23 14 47.025   +11 05 55.70  .50611 1.4820 158.1 22.2  47d  96
2023 10 04 10  23 14 46.183   +11 06 06.67  .50605 1.4819 158.0 22.2  47d  96
2023 10 04 11  23 14 45.344   +11 06 17.62  .50599 1.4817 158.0 22.2  47d  96
2023 10 04 12  23 14 44.509   +11 06 28.56  .50593 1.4816 158.0 22.2  47d  96
2023 10 04 13  23 14 43.677   +11 06 39.49  .50588 1.4815 157.9 22.2  47d  96